Wind_Speed
6 6 7 9 11 13 14 15 16 16 17 16 14 13 13 13 14 13 13 13 12 9 7 9 10 9 9 9 8 8 9 8 9 10 9 9 10 10 9 9 9 10 10 11 11 11 9 6 7 9 9 11 12 13 14 15 16 16 15 12 11 10 8 11 14 14 8 3 4 7 4 7 13 15 14 10 7 7 7 7 9 9 8 6 3 1 7
6 7 8 10 13 14 15 15 16 15 14 13 13 14 14 14 14 12 12 12 10 8 8 9 9 9 9 9 8 8 9 9 10 9 9 9 9 9 8 9 9 9 10 10 10 10 8 6 7 9 10 12 13 14 16 16 17 16 12 10 10 9 8 9 12 9 4 1 3 5 7 12 16 16 15 13 9 9 9 8 8 6 3 2 1 1 3
7 8 10 12 14 14 14 14 14 13 13 14 14 15 14 13 11 11 12 11 8 8 9 9 9 9 9 8 8 9 9 9 9 8 9 9 8 8 8 8 9 9 9 9 9 11 11 8 8 11 13 14 15 16 16 17 17 13 10 10 11 11 9 8 6 2 1 3 4 8 13 17 17 15 13 11 11 10 10 7 5 3 2 5 4 3 6
9 10 12 13 13 13 13 13 14 15 15 15 15 14 13 12 10 10 11 10 8 9 10 9 9 9 9 8 8 9 9 9 9 8 8 9 9 8 8 8 9 8 8 9 10 13 14 11 12 14 15 15 16 16 17 17 14 10 10 13 12 10 8 6 5 4 5 8 11 14 16 16 14 11 9 9 10 10 10 5 2 1 6 8 4 6 14
10 11 12 11 12 12 13 14 15 15 15 15 14 13 12 11 11 11 11 9 8 9 10 9 9 9 9 9 9 9 9 9 9 9 8 9 9 8 7 8 8 8 9 10 12 14 15 14 15 16 16 15 16 16 17 15 11 10 13 12 9 9 8 6 5 6 7 10 12 14 14 12 9 7 6 7 8 9 8 3 0 3 6 6 5 11 20
10 10 10 11 12 13 14 15 15 14 14 14 14 13 12 12 11 11 10 9 9 10 10 9 9 9 9 9 9 9 9 10 10 9 8 8 8 8 7 7 8 9 11 12 14 16 16 17 18 17 16 16 15 16 15 12 10 11 11 9 9 9 7 7 8 9 8 7 7 9 10 9 7 5 6 6 6 7 6 3 2 4 6 8 13 19 25
9 10 11 12 13 14 14 14 14 14 14 13 13 13 12 11 11 11 11 10 10 10 10 9 9 10 10 9 9 10 10 10 10 9 8 8 7 7 7 7 9 11 12 14 15 17 18 19 19 18 17 17 16 16 14 11 10 10 8 9 10 9 8 9 11 10 5 2 4 9 10 10 8 6 6 6 6 7 6 5 7 9 12 15 20 25 28
10 11 12 12 13 13 13 13 13 13 13 13 13 13 12 12 11 11 11 11 11 10 10 10 10 10 11 10 10 10 10 10 9 8 8 7 7 7 7 8 10 12 13 14 16 18 19 19 18 18 18 18 17 15 12 9 8 8 9 10 10 10 10 11 11 7 1 2 8 10 10 11 10 7 6 7 8 8 8 9 12 15 18 21 25 29 33
11 12 12 12 12 13 13 13 13 13 14 14 13 13 13 12 12 12 11 10 10 10 10 10 10 10 11 10 10 10 10 10 9 8 8 7 6 7 8 10 12 14 14 15 16 18 19 18 18 18 18 17 15 13 10 7 6 9 10 10 10 13 11 10 10 4 1 3 10 10 11 13 11 8 8 10 9 9 11 14 17 20 23 27 31 35 39
11 12 12 12 13 13 14 14 14 14 14 14 14 14 14 13 13 12 11 10 10 10 10 11 10 10 10 10 10 11 11 11 9 8 8 7 7 8 9 11 14 15 15 16 17 19 19 18 18 18 17 16 13 10 6 5 7 9 9 10 13 14 12 9 9 4 0 5 11 12 12 11 8 7 10 11 10 11 13 17 21 23 26 31 35 39 41
12 13 13 13 14 14 15 15 15 15 15 15 15 14 14 14 13 12 12 11 10 10 10 11 11 10 10 10 11 11 11 11 10 9 8 7 8 9 11 13 15 16 16 16 18 20 20 19 18 17 16 14 10 6 4 6 9 9 10 13 15 14 12 9 8 7 5 7 12 12 7 4 4 5 8 9 11 13 17 21 25 28 31 35 38 39 37
13 13 14 14 15 15 15 15 15 15 15 15 15 14 14 14 13 12 12 11 10 10 11 11 11 11 11 11 11 12 12 11 10 10 9 9 10 11 13 15 16 17 17 17 19 20 20 19 18 16 13 11 7 4 4 7 9 9 11 15 15 13 11 7 8 10 8 9 12 8 1 2 5 7 8 10 13 15 20 26 29 33 37 40 39 35 31
13 14 14 15 15 15 15 15 15 15 15 14 14 14 14 14 13 13 12 11 11 11 11 12 12 12 12 12 12 12 12 11 10 10 9 10 11 13 15 16 17 18 17 18 20 21 20 18 16 13 10 8 6 4 6 8 9 10 13 15 15 14 11 8 9 11 9 9 10 5 4 8 10 11 11 12 13 16 23 30 34 37 40 39 34 30 32
14 14 15 15 16 16 16 16 16 15 15 15 15 14 14 14 13 13 12 12 12 11 12 12 13 13 13 12 12 12 12 11 10 10 10 11 13 15 17 17 18 18 17 19 21 21 18 16 13 10 7 6 5 5 7 9 10 12 15 15 14 14 12 9 10 11 9 9 9 6 7 9 8 9 9 10 13 19 26 33 39 39 37 32 30 33 39
15 15 16 17 17 17 17 17 17 16 16 16 15 15 14 14 13 13 13 12 12 12 12 13 13 13 13 12 12 12 11 11 11 11 11 12 14 16 17 18 19 18 18 21 21 19 16 14 10 7 5 4 5 6 7 9 11 14 16 16 15 15 14 11 10 11 11 9 7 5 4 4 5 6 8 10 16 23 29 35 37 33 28 29 33 40 44
16 17 17 17 17 17 17 17 17 17 16 16 15 15 14 14 13 13 13 13 13 13 13 13 13 12 12 12 12 12 11 11 12 12 13 14 16 17 17 18 19 18 19 21 20 16 14 11 7 6 4 4 6 6 6 7 10 12 13 12 13 14 12 11 12 14 13 10 6 3 3 5 7 10 12 14 21 28 31 29 27 25 28 35 40 42 43
17 17 17 17 17 17 17 17 17 17 17 17 16 15 15 14 14 13 13 13 13 13 12 13 12 12 11 12 12 12 12 12 13 13 14 15 16 16 18 19 19 19 20 20 17 15 12 9 7 6 5 5 7 7 5 7 10 11 10 10 13 14 13 14 18 19 16 12 9 7 7 9 11 14 19 24 28 30 23 15 20 31 37 40 42 42 43
17 17 17 17 17 17 17 17 18 18 18 17 17 16 16 15 15 14 14 14 13 13 13 13 12 11 12 12 13 13 13 13 14 14 15 16 16 17 19 19 18 19 19 17 15 14 11 8 8 8 5 6 8 7 5 7 10 12 13 13 15 18 17 17 21 21 17 13 13 13 11 10 13 20 28 31 30 26 18 16 28 39 40 40 42 43 43
17 17 17 17 18 18 18 18 18 18 18 18 18 17 17 16 16 15 15 14 14 14 13 12 12 12 13 13 13 14 14 14 14 15 16 16 17 19 20 18 18 18 17 15 14 13 10 9 10 8 6 7 9 8 6 7 8 11 13 14 16 18 17 18 22 23 18 16 18 15 10 13 21 28 31 32 29 26 26 29 36 39 39 41 42 42 43
18 18 18 18 18 18 18 18 18 18 18 19 19 18 17 17 16 16 16 15 15 14 13 12 12 13 14 14 14 14 14 14 15 16 17 18 19 20 20 18 17 17 15 14 13 12 10 10 10 8 6 9 10 9 8 9 9 11 13 14 15 17 15 15 21 23 18 16 15 11 10 20 30 33 32 33 32 31 33 37 38 38 40 41 41 42 43
18 18 19 19 19 19 19 19 18 18 19 20 20 19 18 17 17 17 17 16 15 15 13 13 14 15 14 14 14 14 14 14 15 17 18 20 21 20 19 18 17 15 14 14 13 12 11 10 9 8 7 9 10 8 8 9 9 11 14 14 14 16 14 14 20 21 16 13 12 12 17 26 31 31 32 34 34 34 35 37 38 38 39 40 41 42 43
19 19 19 19 19 19 19 19 19 19 19 20 20 19 18 17 18 18 17 16 16 14 13 14 15 15 14 14 14 14 15 16 17 19 20 20 20 19 17 16 16 15 14 14 13 12 10 9 8 8 7 8 9 9 9 9 8 9 13 14 14 15 16 18 21 20 17 17 17 18 21 25 28 31 31 31 32 33 34 35 36 38 38 40 41 42 43
19 19 19 19 19 19 19 19 19 19 19 20 19 18 18 17 18 18 17 17 16 15 14 15 16 15 14 14 14 15 16 17 18 20 20 20 19 18 17 16 16 15 15 14 13 11 10 9 8 9 8 8 10 11 10 10 9 10 12 14 16 18 19 21 22 21 20 20 19 19 20 23 27 30 30 30 32 33 33 34 35 37 38 40 41 42 44
20 20 20 20 20 20 20 20 20 20 20 20 20 20 19 19 19 18 18 18 17 16 16 16 15 15 14 14 15 17 18 18 19 20 20 19 18 18 17 16 16 16 15 14 13 12 11 11 11 10 9 9 11 11 10 9 10 11 12 15 19 20 21 21 20 20 21 21 21 22 23 24 26 28 29 31 32 32 32 34 35 37 39 40 41 43 43
22 22 22 21 21 21 21 21 21 21 21 21 21 21 20 20 20 19 20 20 18 16 16 16 15 15 15 15 17 18 18 19 20 20 20 20 19 18 17 17 16 16 15 14 13 12 13 12 12 11 10 10 11 11 10 11 11 11 13 17 21 21 21 22 22 22 22 23 24 27 27 26 27 30 32 33 33 33 34 35 36 38 39 41 41 42 43
22 22 22 22 22 21 21 21 21 21 21 21 21 21 21 22 21 21 21 21 19 17 17 17 16 16 16 16 18 19 20 21 21 21 20 20 19 18 18 17 16 16 15 14 13 13 14 14 12 12 12 12 12 11 11 12 12 12 15 20 22 22 22 24 25 25 25 26 29 31 32 31 31 32 34 34 35 35 35 36 37 39 40 41 42 42 43
22 22 22 22 22 22 21 21 21 21 22 22 21 21 22 23 22 21 22 21 19 18 18 17 17 16 16 18 20 20 21 21 22 21 20 19 18 18 18 17 16 16 15 14 13 14 15 14 12 12 14 14 13 12 13 13 12 14 19 22 23 23 25 27 28 29 29 30 32 34 35 35 34 34 36 36 36 35 36 37 38 39 40 41 42 42 42
21 22 22 22 22 22 22 21 21 21 22 22 22 22 22 23 23 22 22 21 20 19 19 19 18 17 17 19 21 21 21 22 21 20 19 18 18 18 17 17 16 16 15 13 13 14 16 15 14 14 16 16 13 13 14 15 15 18 22 24 24 26 28 29 30 31 31 32 32 33 34 35 35 35 36 36 35 36 37 38 38 40 40 42 43 43 43
21 21 21 22 22 21 21 22 22 21 22 23 23 22 22 22 23 23 22 21 21 20 20 20 19 17 18 20 21 21 21 21 21 20 19 18 17 17 17 17 17 16 15 13 13 15 16 16 16 16 17 17 15 15 16 17 19 22 24 25 26 27 28 29 30 31 32 33 33 33 33 35 35 35 36 36 35 36 37 38 38 40 41 42 43 43 44
21 21 21 21 21 21 21 22 22 21 22 23 23 22 21 22 23 23 22 21 21 21 21 21 19 18 18 20 20 21 21 20 19 19 18 17 17 17 17 17 16 16 15 14 14 15 16 17 17 16 17 18 17 17 18 20 22 24 25 25 26 27 27 29 30 32 33 34 34 33 33 34 35 34 34 34 34 35 36 38 39 41 42 43 43 43 43
21 21 20 20 21 21 21 21 21 22 22 23 23 23 23 24 24 24 23 22 22 22 22 22 20 18 18 20 21 21 21 20 19 18 18 17 17 17 17 17 16 16 15 15 15 16 17 17 17 17 18 19 19 19 21 22 24 25 25 26 27 27 28 29 31 32 34 35 35 34 32 32 33 33 33 33 34 35 37 39 40 41 41 42 42 42 42
21 21 20 20 20 20 20 20 21 22 22 22 23 24 25 24 24 24 23 23 24 24 23 22 21 20 19 19 21 21 21 20 19 18 18 17 17 17 17 16 15 15 15 15 15 16 17 17 17 17 19 20 21 21 22 24 25 25 26 27 28 28 29 30 32 33 35 36 37 36 34 33 33 33 34 35 36 37 39 40 40 40 41 41 42 41 41
21 20 20 20 20 20 20 20 21 22 22 22 23 25 25 24 24 24 24 24 24 24 23 23 23 21 19 18 19 21 20 19 18 18 17 17 17 17 16 15 15 14 14 15 17 17 17 17 18 18 19 21 22 22 23 25 26 26 27 28 29 29 30 31 33 35 36 36 37 38 37 37 36 36 36 37 37 38 39 39 40 41 41 41 42 42 41
21 20 20 20 19 19 20 20 20 21 22 22 23 24 25 24 24 24 24 24 24 24 23 23 23 22 20 19 19 20 20 18 17 17 16 16 16 16 15 14 15 14 14 15 18 18 17 17 18 18 20 22 23 24 25 26 27 27 28 29 30 30 31 33 34 35 37 37 38 38 38 37 37 36 36 36 37 37 38 39 41 41 41 42 42 42 42
21 20 20 20 19 19 19 20 20 21 21 21 21 23 24 24 23 23 24 24 24 23 23 23 23 23 22 20 20 20 20 18 17 16 16 15 15 15 14 14 14 14 13 15 18 19 17 17 18 19 20 23 25 26 27 27 28 28 29 30 31 32 33 35 36 37 38 39 39 39 38 37 37 36 35 36 37 38 39 40 41 42 42 42 43 43 42
21 20 20 20 19 19 19 19 19 20 21 21 21 22 23 23 22 23 24 23 23 24 25 24 24 25 24 22 21 20 20 18 16 15 15 15 14 14 13 13 14 14 13 14 18 19 17 17 18 19 22 25 26 27 27 28 28 29 30 31 32 33 35 36 38 38 39 39 40 40 38 37 37 36 36 37 38 39 40 41 42 43 43 43 43 43 43
21 20 20 19 19 18 18 19 19 19 20 21 21 21 22 22 22 22 22 22 23 25 26 25 25 25 25 23 22 20 19 17 15 14 14 15 14 13 13 14 14 14 13 15 18 19 17 17 18 20 24 26 27 27 28 28 29 30 31 32 33 34 35 37 38 39 40 40 39 39 39 38 38 38 38 38 39 40 41 42 43 43 44 44 44 44 43
21 20 19 19 19 18 18 19 19 19 20 21 20 20 21 22 21 21 21 22 24 26 26 26 26 25 24 23 21 20 18 16 14 14 14 14 14 13 13 14 14 13 12 15 17 18 17 17 19 22 25 27 28 29 29 30 30 31 32 33 34 35 36 37 39 40 41 40 40 40 40 40 39 38 38 39 39 40 41 42 43 43 43 43 44 43 43
21 20 19 19 19 18 18 19 19 18 19 20 19 19 21 21 21 21 23 24 25 26 27 27 26 24 23 22 20 19 18 16 14 14 14 14 14 13 13 14 13 12 12 15 17 18 18 19 20 23 26 28 29 29 30 31 31 32 33 34 34 36 37 38 39 40 41 41 40 40 40 40 40 39 39 39 39 40 41 41 42 42 42 43 43 43 42
21 20 19 19 18 17 17 19 19 18 18 19 19 19 20 21 21 22 23 24 25 26 27 27 26 24 23 22 20 18 17 15 13 13 13 14 14 14 13 14 14 12 12 15 17 17 18 20 22 25 28 29 30 30 31 31 32 33 33 34 35 36 38 38 39 40 40 40 39 39 39 39 39 39 38 39 39 40 41 41 41 42 42 42 42 42 42
21 20 18 18 19 17 16 18 19 18 18 19 20 19 20 21 22 22 23 24 25 26 27 26 25 24 23 21 19 18 17 15 13 12 13 13 14 13 13 13 13 12 12 15 17 18 19 21 22 26 29 30 30 31 32 32 33 34 34 35 36 37 38 39 39 40 40 39 39 39 39 39 39 38 38 39 40 41 41 41 41 41 41 42 42 42 42
21 19 18 18 19 17 15 17 19 18 18 20 21 20 21 22 22 22 23 24 25 26 26 26 25 24 22 21 19 17 16 14 13 12 12 13 13 13 12 13 13 12 13 15 17 18 20 21 24 27 30 31 31 32 33 33 34 35 35 36 37 38 39 40 40 40 40 39 39 39 38 38 38 39 39 39 40 41 42 42 41 41 41 41 41 42 42
20 19 17 17 18 17 15 16 19 19 18 20 22 21 20 21 21 21 22 23 24 25 25 25 24 23 21 20 18 16 15 14 13 12 13 13 13 13 13 13 13 13 13 15 17 19 20 22 25 29 31 32 32 33 33 34 35 35 36 36 38 38 39 40 40 40 40 40 39 39 38 37 38 38 39 39 40 41 41 42 41 41 41 40 41 42 42
19 19 17 16 18 19 16 16 20 21 20 21 22 21 20 20 20 20 20 22 23 24 24 24 23 22 20 18 17 15 14 13 12 12 13 13 13 12 13 13 14 14 15 16 18 20 21 24 27 30 32 33 34 34 34 34 35 35 36 37 38 39 40 40 40 40 40 40 39 39 37 37 37 38 39 39 40 41 41 41 41 41 40 40 41 42 42
19 19 18 17 19 20 18 17 19 21 21 21 22 21 20 20 19 19 20 22 23 24 24 23 22 21 19 17 16 15 14 13 12 12 13 13 13 13 13 14 14 15 16 17 19 22 24 26 29 31 32 33 35 35 35 35 35 35 36 38 38 39 40 40 40 41 41 40 40 39 37 37 37 37 38 39 40 41 41 41 41 40 40 40 40 41 42
19 20 19 17 19 21 20 18 19 20 21 21 21 21 20 19 19 19 20 21 23 24 24 24 22 21 18 16 15 14 13 12 12 12 12 13 13 14 14 14 15 15 17 19 22 24 27 29 30 31 32 33 35 35 35 36 35 36 37 38 39 40 41 41 41 41 41 40 40 38 37 37 37 37 37 39 40 40 41 41 41 40 40 40 41 41 41
19 20 20 18 19 20 20 19 19 20 20 21 21 21 20 19 18 19 20 21 22 24 24 23 22 20 17 15 15 13 12 12 12 12 12 13 14 14 14 14 15 16 18 21 24 27 28 29 30 31 32 33 35 36 36 36 36 36 37 39 40 40 41 42 42 42 41 41 39 38 37 36 36 36 37 38 39 40 40 40 40 40 40 40 41 41 42
20 20 20 20 19 19 19 19 19 20 20 21 21 21 21 19 18 19 20 21 22 23 23 22 21 19 17 15 14 13 12 11 12 12 13 13 14 14 14 14 16 18 20 23 26 28 29 30 31 31 32 33 35 36 36 36 36 37 38 39 40 41 42 42 42 42 41 40 39 38 37 36 36 36 36 37 39 39 39 39 39 39 39 39 40 41 41
20 20 21 21 20 19 19 20 20 20 20 21 21 22 21 20 19 19 20 21 23 23 23 22 21 18 16 15 13 12 11 12 12 13 13 13 13 14 14 16 18 21 23 26 28 29 29 30 30 31 31 33 35 36 36 36 36 37 38 39 40 41 42 42 42 42 41 40 39 38 37 36 36 36 36 37 38 39 39 38 38 39 39 39 39 40 40
20 21 21 21 20 20 20 20 20 20 21 21 21 22 22 21 20 20 21 22 23 24 23 22 21 18 17 15 13 12 12 12 13 13 13 13 14 15 16 18 21 24 26 28 29 29 29 29 30 30 31 33 35 36 36 36 37 37 38 39 41 41 42 42 42 42 41 40 39 38 37 37 36 37 37 37 37 38 39 39 39 38 38 39 39 39 40
20 21 22 22 21 21 21 21 21 21 21 21 21 22 22 22 21 20 21 22 23 24 24 23 21 19 18 16 14 13 13 14 14 14 14 15 15 16 18 20 23 26 27 28 29 29 29 29 29 30 31 33 35 36 36 37 37 38 39 40 41 42 43 43 43 42 42 41 40 39 38 37 37 37 37 37 38 38 39 39 38 37 37 37 38 38 39
21 22 23 23 22 22 21 22 22 21 21 21 21 22 23 22 21 21 21 23 24 24 23 22 21 19 18 17 15 14 14 15 15 15 15 16 17 18 20 22 25 27 28 28 29 29 28 29 29 30 31 33 35 36 36 37 37 38 39 40 41 42 43 43 43 43 42 41 40 40 39 38 37 37 38 38 38 38 38 38 38 37 36 36 36 38 39
Wind_Direction
331 328 323 325 327 326 325 326 327 327 327 329 333 336 336 336 334 331 333 336 338 343 343 342 345 350 351 350 351 351 351 351 350 351 352 351 350 350 352 352 352 352 351 353 356 357 357 351 342 338 335 332 328 327 330 331 332 331 330 328 326 322 311 305 315 324 325 302 207 187 193 321 328 328 326 319 303 296 290 280 276 273 273 268 258 251 223
332 333 327 323 323 324 324 326 326 327 330 334 336 335 334 333 332 332 336 338 340 344 345 344 347 350 351 354 355 355 356 357 355 355 354 354 354 357 358 357 359 359 358 2 6 8 7 356 346 343 336 332 331 330 331 332 332 332 331 331 330 326 314 310 319 331 350 80 192 221 268 307 319 321 318 315 309 311 312 292 273 268 267 268 252 235 255
335 329 324 323 323 325 327 330 331 333 335 336 335 335 336 338 338 339 341 341 340 341 344 347 351 353 356 1 360 359 2 1 359 359 357 358 1 2 3 5 7 9 10 12 15 13 9 2 351 344 338 333 330 328 329 330 331 332 333 332 329 325 316 309 306 300 289 290 288 293 296 302 309 310 306 307 308 316 323 302 258 224 267 296 288 282 309
328 324 324 326 329 332 335 336 335 335 335 336 338 341 345 347 346 345 344 343 340 343 349 355 359 1 5 9 6 6 8 5 3 2 0 3 5 5 11 14 15 18 17 15 13 7 1 356 347 342 338 334 330 328 329 329 332 335 331 329 330 329 328 321 303 278 281 291 294 296 296 296 297 292 291 305 312 320 328 317 246 267 304 303 290 292 305
326 328 331 334 337 339 338 336 336 338 340 342 346 348 350 350 349 349 350 350 348 352 360 4 7 12 14 13 10 10 10 6 4 4 4 6 9 10 17 21 21 20 13 8 5 359 353 348 343 341 338 335 332 331 331 332 336 336 332 335 341 339 341 340 331 324 311 297 290 290 293 291 282 275 289 310 313 316 326 337 99 327 313 297 280 299 308
336 339 340 341 341 340 340 341 343 346 348 349 351 352 355 356 355 356 360 1 1 5 10 13 17 21 18 14 12 12 11 8 6 7 8 9 12 14 18 20 18 11 4 1 358 353 348 344 343 341 340 339 335 334 335 336 338 337 339 348 350 345 347 340 338 342 328 298 289 301 305 294 275 271 289 297 300 309 324 343 332 324 319 306 304 311 316
347 348 346 345 345 346 348 350 352 354 355 357 359 1 3 4 4 5 8 11 12 15 17 18 21 22 17 14 14 13 11 9 8 9 9 10 12 13 16 17 10 2 357 356 353 350 347 344 343 342 342 340 336 336 338 336 338 344 353 355 351 352 352 338 335 342 339 308 319 320 311 294 279 278 285 288 294 304 314 318 310 312 315 310 309 315 318
352 352 352 352 353 355 357 359 1 3 5 7 8 9 10 11 12 12 13 14 14 15 18 20 21 19 16 14 13 13 11 9 8 8 8 9 11 12 13 10 3 357 354 352 350 348 346 344 342 341 339 337 333 334 336 335 344 355 357 355 355 357 350 337 336 343 13 354 336 324 312 299 285 277 277 280 284 288 292 299 303 308 313 311 312 316 317
359 0 2 3 4 5 7 9 10 11 11 11 13 13 13 14 14 15 15 15 15 15 15 18 18 16 14 12 10 10 8 6 6 5 3 3 3 6 5 0 356 354 351 348 347 347 345 342 339 336 335 333 331 330 334 344 358 358 354 355 357 356 350 339 340 355 148 336 336 325 309 296 281 273 282 290 300 303 304 310 314 316 318 317 318 320 321
10 11 12 13 14 14 13 13 13 13 13 13 13 14 13 13 13 14 14 12 14 15 14 14 15 12 10 9 7 7 5 3 3 2 358 353 350 354 355 351 351 350 346 344 345 345 342 339 335 332 331 330 330 331 341 359 359 355 355 356 355 357 355 345 349 10 21 328 332 322 305 288 274 287 301 308 321 320 310 314 317 318 320 321 322 323 323
19 19 19 19 18 16 15 14 13 13 12 11 11 11 11 10 10 10 10 9 11 13 13 11 11 9 7 6 6 4 3 1 359 357 351 344 341 343 345 344 345 345 343 341 341 341 339 336 332 331 331 332 334 339 351 359 355 354 356 356 357 1 360 351 356 3 350 335 334 325 300 253 257 296 306 310 321 319 314 317 320 320 321 321 321 322 321
24 22 20 18 16 14 12 11 10 9 9 8 8 7 7 7 7 7 7 7 7 9 9 8 8 8 5 4 4 3 1 360 357 353 347 341 339 339 340 340 341 342 341 337 337 338 337 334 332 331 334 340 342 342 346 350 349 351 355 356 359 4 5 5 8 1 348 343 348 346 282 249 284 286 295 307 312 314 314 317 320 320 319 319 320 321 320
23 19 16 13 11 9 6 5 4 4 3 3 3 3 3 3 3 3 4 5 5 3 4 4 5 5 3 1 1 1 0 359 355 350 345 341 339 338 338 338 339 340 338 335 336 337 335 334 334 333 339 349 345 327 332 340 342 349 355 357 2 11 15 14 8 4 355 347 354 351 276 295 296 281 288 301 302 307 315 318 319 319 317 318 321 322 320
17 14 11 9 7 5 3 2 1 360 359 359 359 360 0 360 0 1 2 3 2 359 360 2 4 3 1 359 359 360 359 358 354 348 342 339 338 337 336 337 337 337 336 335 336 336 335 335 336 336 342 354 345 322 322 331 338 347 354 359 7 14 16 14 7 8 6 349 340 315 284 290 286 276 290 309 314 321 326 323 318 315 316 318 321 319 317
14 13 12 10 8 7 5 4 3 2 0 360 359 359 359 359 0 1 360 1 1 360 360 1 1 360 358 357 358 358 357 355 351 346 340 337 337 336 335 336 336 336 336 336 336 335 335 336 340 345 349 353 348 331 319 326 337 347 353 0 7 9 11 16 10 6 9 359 340 318 291 278 277 291 314 326 322 323 324 316 311 312 316 318 318 318 318
17 15 14 12 10 9 8 7 7 6 5 4 3 2 1 1 1 1 359 359 1 1 360 357 356 355 355 355 356 355 354 351 347 343 339 338 337 335 335 336 336 336 336 336 336 336 338 340 348 356 348 341 345 338 320 322 334 345 354 359 2 5 8 9 8 11 16 11 350 318 278 284 299 310 318 321 318 319 319 313 308 314 319 318 318 319 321
18 16 14 13 12 12 12 12 12 12 12 11 10 8 6 4 4 3 0 359 360 0 358 355 354 355 356 356 355 353 349 346 344 342 339 338 337 336 337 337 337 336 336 337 338 339 342 346 353 355 348 342 345 340 323 323 333 346 359 359 359 3 4 4 10 14 13 3 347 322 292 290 303 313 317 320 322 323 322 309 308 318 320 320 321 323 324
19 17 16 16 16 16 16 16 16 17 17 16 15 13 10 9 8 7 4 2 2 2 359 357 358 359 358 356 354 351 346 344 344 342 339 338 338 338 339 339 337 337 338 340 343 345 349 354 356 357 359 352 351 349 339 337 345 355 2 0 359 3 4 5 7 7 4 356 340 323 305 298 309 318 320 324 327 326 315 303 312 319 321 322 324 324 324
21 21 20 19 19 19 19 19 19 20 20 19 16 13 11 11 12 10 7 6 5 2 1 2 3 360 356 353 351 349 347 345 344 342 341 343 342 341 341 340 340 342 344 346 349 353 357 359 358 358 356 354 1 7 1 358 1 1 1 2 3 3 4 2 0 359 359 349 335 326 315 315 322 324 324 326 329 324 315 314 318 321 323 324 324 323 321
25 24 23 22 22 21 20 20 20 20 20 17 14 12 11 11 11 9 8 8 5 3 5 7 3 358 354 353 353 351 350 348 347 346 346 347 345 344 345 346 347 350 353 355 358 360 360 358 358 358 355 358 6 11 6 5 7 5 5 6 3 2 4 1 356 354 350 344 340 334 318 320 325 325 324 326 327 324 321 322 323 323 323 323 322 320 320
28 26 25 23 22 21 19 19 18 17 15 13 11 10 9 9 8 7 6 5 3 6 10 7 1 358 357 357 357 356 355 354 352 351 349 347 347 349 353 354 356 0 4 4 5 4 1 359 0 2 2 4 8 11 9 7 4 5 7 6 360 360 1 355 351 350 342 334 333 324 317 320 323 324 323 325 326 324 323 324 324 322 321 320 320 321 323
29 27 25 23 21 19 18 16 14 12 10 8 8 9 8 7 5 4 3 3 5 8 9 4 2 1 1 1 1 1 359 356 354 353 351 350 353 357 1 3 5 8 10 9 9 8 7 7 10 12 12 12 14 16 15 11 8 7 6 2 357 358 355 347 345 343 334 325 323 324 324 323 321 321 323 323 323 323 323 323 321 320 319 320 322 324 325
30 27 25 22 20 18 16 14 12 10 8 8 9 9 8 6 4 4 5 7 7 7 5 5 6 6 5 4 3 1 359 357 356 356 356 357 359 2 6 9 11 11 12 13 15 17 19 24 27 24 22 22 20 18 14 10 7 5 4 0 356 352 348 343 341 338 332 329 329 331 331 326 320 321 323 322 322 324 324 322 320 320 321 323 325 325 326
32 29 26 24 22 19 18 16 14 13 12 12 11 10 9 8 8 8 9 8 7 6 6 8 10 9 7 7 5 3 2 1 0 1 2 3 5 7 9 10 12 14 17 20 23 27 30 32 32 30 29 26 21 17 13 9 4 2 3 358 351 346 342 340 341 340 337 335 334 333 334 329 323 323 324 324 325 326 325 322 322 323 325 326 327 327 327
35 32 29 27 24 22 21 19 18 17 17 16 14 13 13 12 11 11 9 8 9 10 10 11 11 11 12 11 8 6 5 4 4 5 5 6 7 9 11 12 15 18 23 28 32 35 35 36 35 34 31 24 19 18 16 11 8 7 0 351 346 344 342 342 345 346 342 337 335 334 335 333 330 328 328 328 329 329 327 326 327 327 328 328 328 327 326
37 35 32 30 27 26 25 23 22 21 20 20 19 17 16 15 13 12 10 11 13 14 14 15 14 15 16 14 10 9 8 7 7 7 7 8 9 10 13 16 19 21 28 35 39 38 36 36 35 35 31 25 22 20 14 11 12 6 353 347 345 346 346 345 345 345 343 340 338 336 336 337 335 332 330 331 331 331 330 329 329 329 329 328 328 327 327
37 35 33 31 30 29 28 27 26 24 23 22 22 21 19 16 14 13 13 15 16 17 17 18 17 17 18 14 11 10 10 9 8 8 9 10 11 13 16 19 22 25 31 39 41 38 35 33 32 32 29 26 24 19 13 12 10 357 348 348 349 349 349 347 345 344 344 343 341 339 337 337 337 334 331 332 333 332 330 330 330 330 329 328 329 329 330
35 33 32 30 29 29 29 29 28 27 26 24 23 22 20 17 16 15 16 18 18 19 20 18 17 18 17 13 11 12 11 9 9 10 11 12 14 16 19 23 26 30 35 40 41 36 31 28 28 29 27 23 21 18 13 9 3 353 350 352 353 351 350 348 345 343 343 342 341 339 336 335 334 332 331 332 333 331 330 331 330 330 330 330 330 331 331
32 31 30 29 28 28 28 29 29 28 27 26 24 23 20 18 17 18 18 19 19 19 19 17 17 19 17 13 12 12 11 10 10 12 13 15 17 20 23 26 29 33 36 40 38 31 25 23 25 25 23 20 18 15 10 4 358 353 351 352 353 352 350 347 344 341 340 340 340 339 336 334 333 332 331 332 333 331 330 330 330 331 332 332 332 332 332
30 29 27 27 26 26 27 28 28 27 27 26 25 22 20 20 20 20 20 20 20 19 18 18 18 18 15 14 13 13 12 11 12 14 16 17 19 22 24 28 32 35 36 36 34 26 21 21 22 21 19 17 15 11 6 1 356 352 350 350 351 350 348 345 342 340 339 339 339 338 336 333 332 331 331 332 332 330 330 332 333 334 334 333 332 333 333
28 27 26 25 24 24 25 26 26 26 26 26 23 21 20 21 21 20 21 21 20 19 18 18 18 17 16 16 16 14 13 13 15 17 19 21 22 24 26 29 33 35 34 33 28 22 19 19 20 18 16 14 11 7 3 359 354 350 348 347 347 347 346 344 342 340 339 338 338 338 336 332 331 332 332 332 332 332 333 334 335 335 333 332 333 334 334
26 25 24 24 23 23 24 24 24 24 24 24 21 20 20 20 20 20 21 21 20 19 18 17 18 18 18 17 16 15 14 14 16 18 21 23 24 25 26 30 32 32 31 29 24 20 19 19 17 16 14 11 7 3 359 355 352 348 345 343 343 345 345 344 341 341 340 338 337 337 336 335 334 335 335 335 335 335 336 336 335 334 333 333 334 335 335
24 23 22 22 22 22 22 22 22 23 22 21 20 19 19 19 20 20 21 21 19 18 17 17 19 21 20 18 17 16 15 15 17 20 22 24 25 25 26 28 29 28 28 26 22 20 19 17 16 14 11 7 3 359 356 352 349 346 342 341 342 344 344 343 342 341 340 338 337 337 338 338 338 338 338 338 337 336 336 335 334 334 334 335 336 336 336
22 22 21 20 20 21 21 21 21 20 20 19 19 18 18 19 19 20 21 20 18 16 16 17 20 22 21 20 18 17 16 17 20 22 24 24 24 24 25 25 25 25 25 23 20 19 18 16 14 11 7 3 360 357 353 350 348 345 342 341 343 342 342 343 343 342 340 338 338 339 339 339 339 338 338 337 336 335 335 335 334 335 335 336 337 337 337
21 20 20 19 19 20 20 20 20 19 18 18 17 17 18 19 19 20 21 20 17 15 15 18 21 21 21 21 19 17 17 18 20 22 24 24 22 22 23 23 21 22 23 20 18 17 16 14 11 8 4 0 357 355 352 349 347 344 343 343 343 342 342 343 344 342 340 339 339 339 339 338 337 338 338 338 336 336 336 336 335 336 337 338 338 338 338
19 19 18 18 18 19 18 18 19 18 17 16 16 17 18 18 20 21 21 19 16 15 16 19 20 19 19 19 18 16 16 18 19 20 21 21 19 19 20 19 18 19 19 18 16 15 13 11 7 4 1 358 356 353 351 349 347 345 345 344 344 343 343 344 343 342 341 340 339 339 338 338 338 339 339 338 337 337 337 337 337 337 338 338 338 339 339
18 18 17 17 18 18 17 18 17 16 15 15 15 16 16 17 20 21 19 16 16 17 18 18 19 18 17 17 16 15 15 17 18 18 18 17 15 14 15 15 14 15 16 14 11 10 9 7 4 0 358 357 355 352 351 350 348 347 346 345 344 344 344 343 342 341 340 340 339 338 338 338 340 340 340 338 338 338 338 338 338 338 338 338 339 339 340
17 17 17 17 17 17 17 17 16 15 14 14 14 14 14 16 18 18 16 16 17 18 18 18 18 17 16 15 13 12 13 16 17 16 14 13 12 11 11 9 9 11 12 9 5 3 4 4 1 359 358 356 354 352 351 350 349 347 346 346 345 344 344 343 342 340 340 340 340 339 339 339 340 340 339 339 338 339 339 339 339 339 338 338 339 340 341
15 15 16 16 16 16 17 16 15 14 13 12 12 13 13 15 16 16 15 16 16 15 16 17 16 15 13 13 11 10 10 13 15 12 9 9 8 7 7 5 3 5 9 5 0 358 360 0 359 357 357 355 353 352 351 350 349 348 347 346 345 344 343 342 341 340 339 340 340 340 339 339 340 340 339 339 338 339 339 340 339 339 338 338 339 341 342
14 14 15 15 14 14 15 15 14 13 12 11 12 12 13 14 16 16 15 15 14 13 13 14 12 11 10 10 9 9 8 9 11 9 7 4 3 2 2 359 358 360 3 1 357 355 356 356 356 356 355 353 352 351 351 350 349 347 347 346 345 343 343 342 341 340 340 340 340 339 339 339 339 339 338 338 338 339 340 340 340 339 339 339 340 342 343
13 13 14 14 13 12 13 14 13 13 12 12 12 12 12 14 15 15 14 13 12 11 11 9 8 7 7 6 6 6 6 6 5 4 2 0 358 358 357 355 355 356 355 353 352 352 352 353 354 354 352 351 351 351 350 349 348 347 346 346 344 343 342 342 341 340 340 340 340 339 339 339 338 338 338 339 339 339 340 341 341 340 340 340 341 343 344
11 12 14 14 12 11 12 12 13 13 14 13 12 13 13 12 12 12 11 10 8 8 7 6 5 4 4 4 3 2 2 3 2 359 358 357 355 353 352 351 351 350 347 345 346 348 348 348 350 351 350 349 350 350 349 348 347 347 346 345 344 343 342 341 340 340 341 341 340 340 339 338 337 337 338 339 339 339 340 341 341 341 341 341 342 343 345
11 12 13 12 12 12 11 12 14 15 14 13 13 13 11 10 9 8 7 6 5 4 4 3 2 1 0 0 360 358 358 358 358 355 354 352 349 349 348 346 343 341 339 339 342 343 344 345 346 347 348 348 349 349 348 347 346 346 345 344 343 342 342 341 340 341 341 341 341 340 339 338 337 337 338 339 340 340 341 341 341 341 341 342 343 344 345
11 12 11 10 11 12 13 13 14 14 14 13 12 11 8 6 6 5 3 2 2 2 2 1 359 358 357 357 357 357 355 353 352 351 349 347 345 345 344 340 336 335 335 335 337 340 341 342 343 344 345 346 347 347 347 347 345 345 344 344 343 342 341 341 341 341 342 342 341 341 340 338 337 337 338 339 340 341 341 341 342 342 342 342 344 345 346
11 11 10 10 11 13 15 14 12 12 12 12 11 8 5 3 2 1 360 360 359 360 359 359 358 357 356 355 355 355 352 348 346 345 344 342 341 340 337 334 333 333 332 331 334 336 338 339 340 340 342 344 345 345 346 345 345 344 344 343 343 342 342 341 342 342 343 342 342 341 340 338 337 337 338 339 340 341 341 341 342 342 343 343 345 346 347
10 10 9 9 10 13 15 14 10 9 10 10 9 7 4 2 360 358 358 357 357 357 357 357 356 355 355 354 353 352 350 346 341 340 340 339 337 335 333 333 333 332 330 330 332 334 335 336 337 337 339 341 343 344 344 344 344 344 343 343 343 342 341 342 342 343 343 343 342 341 340 338 338 338 338 339 340 341 342 342 342 343 344 344 345 347 348
9 9 8 9 10 11 11 9 6 6 6 7 7 6 3 0 358 357 356 356 355 355 355 355 354 353 352 352 351 349 348 344 339 338 338 336 333 333 333 331 330 329 328 327 329 331 332 333 334 335 337 339 341 342 343 343 343 343 343 343 342 341 341 342 343 344 344 343 342 341 340 338 338 338 339 339 340 341 342 342 343 344 344 345 346 348 349
7 6 6 8 8 7 5 4 2 2 3 3 3 3 1 359 357 356 355 354 354 353 353 353 352 351 350 350 348 346 344 341 337 336 335 332 330 331 330 326 326 327 327 326 327 329 330 331 333 334 335 337 339 341 342 342 343 343 343 342 342 342 342 343 343 344 344 344 342 341 340 339 339 339 340 340 341 342 342 343 343 344 345 346 347 348 349
4 2 3 5 4 2 0 0 359 359 359 360 360 359 358 357 355 354 353 353 352 352 352 352 351 349 348 348 347 344 340 337 334 333 331 328 325 325 324 323 325 328 329 328 328 329 329 331 332 332 333 336 338 340 341 342 342 342 342 342 342 342 342 343 344 345 345 344 343 342 341 340 340 341 341 341 342 342 343 344 344 345 346 347 348 348 348
359 359 0 1 360 358 358 357 356 355 355 356 356 355 355 354 353 352 351 351 351 351 350 350 348 347 346 346 344 340 336 334 331 328 325 323 321 321 321 323 326 328 329 329 328 328 328 329 331 331 333 335 337 339 340 342 342 342 342 342 342 342 343 344 345 345 345 345 344 343 342 342 341 341 341 342 343 343 343 344 346 347 347 348 348 347 348
355 356 356 356 356 355 355 354 353 352 351 351 351 351 352 352 351 349 349 349 349 349 348 347 346 345 343 341 338 335 331 331 329 326 323 322 320 319 321 324 328 329 328 328 328 328 328 329 330 331 333 335 337 338 340 341 341 342 342 342 342 343 343 344 345 346 346 346 345 344 343 343 342 341 341 342 344 344 345 345 346 347 347 348 348 348 348
351 352 352 353 353 352 352 351 350 349 348 347 346 347 348 348 347 346 346 347 347 347 347 345 344 341 338 334 331 329 327 326 325 325 324 322 320 319 321 325 328 328 328 328 328 328 329 330 331 332 334 335 337 339 340 341 341 342 342 341 342 343 344 345 346 346 347 347 346 345 344 343 342 341 342 343 344 346 346 346 345 346 347 348 349 349 349
Height
3160 3159 3159 3158 3157 3156 3155 3153 3152 3150 3148 3147 3146 3144 3143 3142 3140 3139 3137 3136 3135 3134 3133 3132 3131 3130 3129 3128 3127 3126 3126 3125 3124 3123 3122 3121 3120 3119 3118 3117 3116 3115 3114 3113 3111 3110 3109 3108 3107 3107 3106 3105 3104 3102 3101 3100 3098 3097 3095 3094 3093 3092 3091 3089 3087 3086 3085 3084 3083 3083 3083 3082 3081 3081 3080 3079 3079 3078 3078 3078 3076 3076 3075 3074 3074 3073 3071
3159 3159 3158 3157 3156 3155 3154 3152 3150 3149 3148 3146 3145 3144 3142 3141 3139 3138 3137 3135 3134 3133 3132 3131 3130 3129 3128 3128 3127 3126 3125 3125 3124 3123 3122 3121 3120 3119 3118 3117 3116 3114 3113 3112 3111 3110 3109 3108 3107 3106 3105 3104 3103 3101 3100 3099 3097 3096 3094 3093 3092 3091 3090 3089 3087 3086 3085 3084 3084 3083 3082 3081 3080 3079 3078 3078 3077 3077 3077 3076 3075 3075 3074 3074 3074 3073 3071
3159 3158 3158 3157 3155 3154 3152 3151 3150 3148 3147 3146 3144 3143 3141 3140 3139 3137 3136 3135 3134 3133 3132 3131 3130 3129 3128 3127 3127 3126 3125 3124 3123 3122 3121 3120 3119 3118 3117 3116 3115 3114 3113 3112 3111 3110 3109 3108 3107 3106 3105 3103 3102 3100 3099 3097 3096 3094 3093 3092 3091 3090 3089 3088 3087 3087 3086 3085 3084 3083 3082 3080 3079 3078 3077 3076 3076 3076 3075 3074 3074 3074 3074 3073 3073 3072 3071
3159 3158 3157 3156 3155 3153 3152 3150 3149 3148 3146 3145 3143 3142 3141 3139 3138 3137 3136 3134 3133 3133 3132 3131 3130 3129 3128 3127 3127 3126 3125 3124 3123 3122 3121 3120 3119 3118 3117 3116 3115 3114 3113 3113 3112 3110 3109 3108 3107 3106 3104 3102 3101 3099 3098 3096 3094 3093 3092 3091 3090 3089 3088 3087 3087 3086 3086 3085 3083 3081 3080 3079 3078 3077 3076 3076 3075 3074 3074 3074 3073 3073 3073 3072 3072 3071 3070
3158 3158 3156 3155 3154 3152 3151 3150 3148 3147 3145 3144 3143 3141 3140 3139 3138 3136 3135 3134 3133 3132 3131 3130 3130 3129 3128 3127 3126 3125 3124 3123 3122 3122 3121 3120 3119 3118 3117 3116 3115 3115 3114 3113 3112 3110 3109 3108 3106 3105 3103 3101 3100 3098 3096 3095 3093 3092 3091 3090 3089 3088 3087 3086 3086 3085 3084 3083 3081 3080 3078 3078 3077 3076 3076 3075 3074 3073 3073 3073 3073 3073 3072 3071 3070 3069 3067
3158 3157 3156 3155 3153 3152 3150 3149 3148 3146 3145 3144 3142 3141 3140 3138 3137 3136 3135 3134 3133 3132 3131 3130 3130 3129 3128 3127 3126 3125 3124 3123 3122 3122 3121 3120 3119 3118 3117 3116 3115 3115 3113 3112 3111 3110 3108 3107 3105 3104 3102 3100 3099 3097 3095 3094 3093 3091 3090 3089 3088 3087 3086 3086 3085 3084 3083 3081 3080 3079 3078 3077 3076 3076 3075 3075 3074 3073 3072 3072 3072 3072 3072 3070 3068 3067 3065
3158 3157 3155 3154 3153 3151 3150 3149 3147 3146 3145 3143 3142 3141 3139 3138 3137 3136 3135 3134 3133 3132 3131 3130 3129 3129 3128 3127 3126 3125 3124 3123 3122 3121 3121 3120 3119 3118 3117 3116 3115 3114 3113 3112 3110 3109 3107 3105 3104 3102 3101 3099 3097 3096 3094 3093 3092 3091 3090 3089 3088 3086 3086 3085 3084 3083 3081 3080 3079 3078 3077 3076 3076 3075 3075 3074 3073 3073 3072 3072 3071 3071 3070 3069 3067 3065 3063
3157 3156 3155 3154 3152 3151 3150 3149 3147 3146 3145 3143 3142 3141 3140 3138 3137 3136 3135 3134 3133 3132 3131 3130 3129 3129 3128 3127 3126 3125 3124 3123 3122 3121 3120 3120 3119 3118 3117 3116 3115 3114 3113 3111 3110 3108 3106 3105 3103 3101 3100 3098 3096 3095 3093 3092 3091 3090 3089 3088 3087 3086 3085 3083 3082 3082 3081 3080 3079 3078 3077 3076 3075 3075 3074 3073 3073 3072 3071 3071 3070 3069 3068 3066 3064 3063 3060
3157 3156 3155 3154 3152 3151 3150 3149 3148 3146 3145 3144 3142 3141 3140 3139 3138 3136 3135 3134 3133 3132 3131 3131 3130 3129 3128 3127 3126 3125 3124 3123 3122 3121 3120 3120 3119 3118 3117 3116 3115 3113 3112 3111 3109 3108 3106 3104 3102 3100 3098 3097 3095 3094 3092 3092 3091 3090 3089 3088 3087 3085 3084 3083 3081 3081 3080 3080 3079 3078 3076 3075 3074 3074 3073 3072 3072 3071 3070 3069 3068 3067 3065 3063 3061 3058 3055
3157 3156 3155 3154 3153 3152 3150 3149 3148 3147 3145 3144 3143 3141 3140 3139 3138 3137 3136 3134 3133 3133 3132 3131 3130 3129 3128 3127 3126 3125 3124 3123 3122 3121 3120 3119 3119 3118 3117 3115 3114 3113 3111 3110 3108 3107 3105 3103 3101 3099 3097 3095 3094 3093 3092 3091 3090 3089 3088 3087 3086 3085 3083 3082 3081 3080 3080 3079 3078 3077 3075 3074 3073 3073 3072 3071 3071 3070 3069 3068 3066 3065 3063 3060 3057 3054 3051
3157 3157 3156 3155 3153 3152 3151 3149 3148 3147 3145 3144 3143 3142 3140 3139 3138 3137 3136 3135 3134 3133 3132 3131 3130 3129 3128 3127 3126 3125 3124 3123 3122 3121 3120 3119 3118 3117 3116 3115 3113 3112 3110 3109 3107 3106 3104 3101 3100 3098 3096 3094 3093 3092 3091 3090 3090 3089 3088 3087 3085 3084 3083 3081 3080 3080 3079 3079 3077 3075 3074 3074 3073 3073 3072 3071 3071 3069 3068 3066 3064 3062 3060 3058 3056 3053 3050
3158 3157 3156 3155 3154 3152 3151 3150 3148 3147 3145 3144 3143 3142 3140 3139 3138 3137 3136 3135 3134 3133 3132 3131 3130 3129 3128 3127 3126 3125 3124 3122 3121 3121 3120 3119 3118 3117 3116 3114 3113 3111 3109 3108 3106 3104 3102 3100 3098 3096 3095 3093 3092 3092 3091 3090 3089 3089 3088 3087 3085 3084 3083 3081 3081 3080 3079 3078 3076 3074 3073 3074 3073 3072 3072 3071 3070 3069 3067 3064 3062 3060 3057 3055 3053 3051 3048
3159 3158 3157 3155 3154 3153 3151 3150 3148 3147 3145 3144 3143 3142 3140 3139 3138 3137 3136 3135 3134 3133 3132 3131 3130 3129 3128 3127 3126 3124 3123 3122 3121 3120 3120 3119 3118 3116 3115 3113 3112 3110 3108 3107 3105 3103 3100 3099 3097 3095 3094 3093 3092 3091 3090 3090 3089 3088 3088 3086 3085 3084 3083 3082 3081 3080 3078 3078 3077 3075 3074 3073 3073 3072 3072 3071 3070 3068 3065 3061 3059 3057 3054 3052 3050 3048 3046
3159 3158 3157 3155 3154 3153 3151 3150 3148 3147 3145 3144 3143 3141 3140 3139 3138 3137 3136 3135 3134 3133 3132 3131 3129 3128 3127 3126 3125 3124 3123 3122 3121 3120 3119 3118 3117 3115 3114 3112 3110 3109 3107 3105 3103 3101 3099 3097 3096 3095 3093 3093 3092 3091 3090 3089 3089 3088 3087 3086 3085 3084 3083 3082 3081 3080 3079 3078 3077 3076 3074 3073 3072 3071 3071 3071 3069 3068 3065 3059 3055 3053 3051 3049 3048 3045 3043
3160 3158 3157 3156 3154 3153 3151 3150 3148 3147 3145 3144 3142 3141 3140 3139 3138 3137 3136 3135 3134 3133 3131 3130 3129 3128 3127 3126 3125 3124 3123 3122 3121 3120 3119 3117 3116 3114 3113 3111 3109 3107 3106 3104 3102 3099 3098 3096 3095 3094 3093 3093 3092 3091 3090 3089 3089 3088 3087 3085 3085 3084 3083 3082 3081 3081 3080 3078 3077 3075 3073 3072 3071 3071 3071 3071 3069 3067 3065 3060 3054 3052 3050 3048 3046 3042 3038
3160 3158 3157 3156 3154 3153 3151 3150 3148 3147 3145 3144 3142 3141 3140 3139 3138 3137 3135 3134 3133 3132 3131 3130 3129 3128 3127 3126 3125 3124 3123 3122 3120 3119 3118 3117 3115 3113 3112 3110 3108 3106 3104 3102 3100 3098 3097 3096 3095 3094 3093 3093 3092 3092 3091 3090 3089 3088 3087 3086 3085 3084 3083 3083 3082 3080 3079 3078 3077 3076 3073 3071 3070 3070 3070 3071 3069 3066 3063 3058 3052 3050 3049 3046 3042 3038 3034
3160 3159 3158 3156 3155 3153 3152 3150 3149 3147 3146 3144 3143 3141 3140 3139 3138 3136 3135 3134 3133 3132 3131 3130 3129 3128 3126 3125 3124 3123 3122 3121 3120 3118 3117 3115 3114 3112 3111 3109 3107 3105 3103 3101 3099 3098 3096 3095 3094 3094 3093 3093 3092 3092 3091 3090 3090 3089 3088 3087 3085 3084 3083 3082 3080 3079 3079 3078 3077 3076 3073 3071 3070 3070 3069 3068 3066 3063 3060 3056 3050 3047 3046 3042 3038 3034 3029
3161 3160 3158 3157 3155 3154 3152 3151 3149 3147 3146 3145 3143 3142 3140 3139 3138 3136 3135 3134 3133 3132 3131 3129 3128 3127 3126 3125 3123 3122 3121 3120 3119 3117 3116 3115 3113 3111 3110 3108 3106 3104 3102 3100 3099 3097 3096 3095 3094 3094 3093 3093 3092 3091 3091 3091 3090 3089 3088 3086 3085 3083 3082 3081 3080 3080 3079 3078 3076 3074 3072 3070 3070 3068 3066 3064 3062 3060 3058 3054 3048 3044 3041 3038 3033 3030 3025
3162 3160 3159 3157 3156 3154 3153 3151 3150 3148 3147 3145 3143 3142 3141 3139 3138 3136 3135 3134 3132 3131 3130 3129 3128 3127 3125 3124 3123 3122 3120 3119 3118 3116 3115 3114 3112 3110 3109 3107 3105 3103 3101 3100 3098 3097 3096 3095 3094 3094 3093 3093 3092 3092 3091 3091 3090 3089 3088 3087 3085 3084 3082 3081 3080 3079 3078 3077 3075 3072 3070 3068 3067 3066 3063 3060 3059 3057 3054 3050 3046 3041 3037 3033 3030 3026 3023
3162 3161 3159 3158 3156 3155 3153 3152 3150 3149 3147 3146 3144 3142 3141 3139 3138 3136 3135 3134 3132 3131 3130 3129 3128 3126 3125 3124 3122 3121 3120 3118 3117 3116 3114 3113 3111 3109 3107 3106 3104 3102 3101 3099 3098 3097 3096 3095 3094 3094 3093 3093 3092 3092 3092 3091 3090 3090 3088 3087 3086 3085 3083 3082 3080 3078 3077 3076 3074 3071 3068 3066 3064 3062 3059 3056 3055 3053 3049 3044 3041 3038 3033 3030 3027 3024 3020
3163 3161 3160 3158 3157 3155 3154 3152 3151 3149 3148 3146 3144 3143 3141 3139 3138 3136 3135 3134 3132 3131 3130 3129 3128 3126 3125 3123 3122 3121 3120 3118 3117 3115 3113 3112 3110 3108 3106 3105 3103 3102 3100 3099 3098 3097 3096 3095 3095 3094 3094 3093 3093 3092 3092 3091 3091 3090 3089 3088 3087 3085 3084 3083 3082 3080 3078 3076 3075 3073 3070 3066 3062 3060 3057 3054 3051 3049 3045 3041 3038 3035 3031 3028 3025 3020 3016
3163 3162 3161 3159 3158 3156 3154 3153 3151 3150 3148 3146 3145 3143 3141 3140 3138 3137 3135 3134 3132 3131 3130 3129 3127 3126 3124 3123 3122 3121 3119 3118 3117 3115 3113 3111 3109 3107 3106 3104 3103 3101 3100 3099 3098 3097 3096 3096 3095 3095 3094 3094 3093 3093 3092 3092 3091 3090 3089 3088 3087 3086 3085 3083 3081 3080 3078 3076 3074 3073 3070 3065 3061 3058 3056 3053 3050 3047 3043 3039 3036 3032 3029 3025 3021 3017 3012
3164 3163 3161 3160 3158 3157 3155 3153 3152 3150 3148 3147 3145 3143 3142 3140 3138 3137 3135 3134 3132 3131 3130 3128 3127 3126 3124 3123 3122 3121 3119 3118 3116 3115 3113 3111 3109 3107 3106 3104 3103 3102 3100 3099 3098 3097 3097 3096 3096 3095 3095 3094 3094 3093 3092 3092 3091 3090 3089 3088 3087 3086 3084 3083 3081 3079 3077 3075 3072 3071 3068 3065 3060 3057 3054 3051 3048 3044 3041 3038 3034 3030 3026 3022 3017 3013 3008
3165 3164 3162 3160 3159 3157 3155 3154 3152 3150 3149 3147 3145 3143 3142 3140 3138 3137 3135 3134 3132 3131 3129 3128 3127 3126 3125 3123 3122 3121 3119 3118 3116 3114 3112 3111 3109 3107 3106 3104 3103 3102 3101 3099 3098 3098 3097 3097 3096 3096 3095 3095 3094 3093 3093 3092 3091 3090 3089 3088 3086 3085 3083 3082 3080 3078 3075 3072 3070 3068 3066 3063 3059 3055 3052 3048 3045 3042 3038 3035 3031 3026 3022 3017 3013 3008 3004
3166 3164 3163 3161 3159 3158 3156 3154 3152 3150 3149 3147 3145 3144 3142 3140 3138 3137 3135 3134 3132 3131 3129 3128 3127 3126 3125 3124 3122 3121 3120 3118 3116 3114 3112 3111 3109 3107 3106 3105 3103 3102 3101 3100 3099 3099 3098 3097 3097 3096 3096 3095 3094 3094 3093 3092 3091 3090 3089 3088 3086 3084 3082 3080 3078 3076 3073 3071 3068 3065 3063 3060 3056 3052 3048 3044 3041 3038 3034 3030 3026 3022 3017 3013 3009 3004 3000
3167 3166 3164 3162 3160 3158 3157 3155 3153 3151 3149 3148 3146 3144 3142 3140 3139 3137 3135 3134 3132 3131 3129 3128 3127 3126 3125 3124 3123 3121 3120 3118 3116 3114 3112 3111 3109 3108 3106 3105 3104 3102 3101 3101 3100 3100 3099 3098 3098 3097 3096 3095 3095 3094 3093 3092 3091 3090 3089 3087 3085 3083 3080 3078 3075 3073 3071 3068 3064 3061 3057 3055 3052 3047 3043 3040 3037 3033 3030 3026 3022 3018 3014 3010 3005 3001 2996
3169 3167 3165 3163 3161 3159 3157 3156 3154 3152 3150 3148 3146 3144 3143 3141 3139 3138 3136 3134 3132 3131 3130 3129 3127 3126 3125 3124 3123 3121 3120 3118 3116 3114 3113 3111 3109 3108 3106 3105 3104 3103 3102 3102 3101 3101 3100 3099 3099 3098 3096 3095 3094 3094 3093 3092 3091 3090 3088 3086 3084 3081 3078 3075 3072 3069 3067 3064 3060 3056 3052 3049 3046 3043 3039 3036 3033 3030 3026 3022 3019 3015 3011 3007 3002 2998 2993
3170 3168 3166 3164 3162 3160 3158 3156 3154 3153 3151 3149 3147 3145 3143 3142 3140 3138 3136 3135 3133 3132 3130 3129 3128 3127 3126 3124 3123 3121 3120 3118 3116 3114 3113 3111 3110 3108 3107 3106 3105 3104 3103 3103 3102 3101 3101 3100 3098 3097 3096 3095 3094 3094 3092 3091 3090 3089 3086 3084 3082 3078 3075 3072 3069 3066 3064 3061 3058 3054 3050 3046 3044 3040 3036 3033 3030 3027 3023 3019 3016 3012 3007 3003 2998 2993 2989
3171 3169 3167 3165 3163 3161 3159 3157 3155 3153 3152 3150 3148 3146 3144 3143 3141 3139 3137 3135 3134 3132 3131 3130 3128 3127 3126 3125 3123 3121 3120 3118 3116 3115 3113 3112 3111 3109 3108 3107 3106 3105 3104 3103 3103 3102 3101 3099 3098 3097 3096 3095 3094 3093 3092 3091 3089 3087 3085 3082 3080 3077 3074 3071 3068 3065 3062 3059 3056 3052 3048 3044 3041 3038 3034 3030 3027 3024 3020 3017 3013 3008 3003 2998 2994 2989 2985
3171 3170 3168 3166 3164 3162 3160 3158 3156 3154 3153 3151 3149 3147 3145 3143 3141 3139 3138 3136 3134 3133 3132 3130 3129 3127 3126 3125 3123 3121 3120 3118 3117 3115 3114 3113 3111 3110 3109 3108 3107 3106 3105 3104 3103 3102 3101 3099 3098 3097 3096 3095 3094 3093 3091 3090 3088 3085 3083 3081 3078 3076 3073 3070 3067 3063 3059 3056 3053 3050 3046 3042 3039 3035 3032 3028 3025 3021 3018 3014 3009 3004 2999 2995 2991 2987 2982
3172 3170 3168 3166 3164 3162 3161 3159 3157 3155 3153 3151 3150 3148 3146 3143 3141 3140 3138 3136 3135 3133 3132 3130 3129 3127 3126 3125 3123 3121 3120 3119 3117 3116 3115 3113 3112 3111 3110 3109 3107 3106 3105 3104 3103 3102 3101 3099 3098 3097 3096 3095 3094 3092 3090 3089 3086 3084 3081 3079 3077 3074 3071 3068 3065 3061 3057 3054 3051 3048 3045 3041 3037 3034 3030 3026 3023 3019 3014 3010 3005 3001 2997 2992 2988 2984 2979
3172 3171 3169 3167 3165 3163 3161 3159 3158 3156 3154 3152 3150 3148 3146 3144 3142 3140 3139 3137 3135 3134 3132 3130 3129 3127 3125 3124 3123 3122 3120 3119 3117 3116 3115 3114 3113 3111 3110 3109 3108 3107 3106 3105 3103 3102 3101 3100 3099 3097 3096 3095 3093 3091 3090 3088 3085 3083 3080 3078 3075 3072 3069 3066 3063 3059 3055 3051 3048 3045 3042 3039 3035 3031 3027 3023 3019 3015 3010 3006 3002 2998 2994 2989 2985 2980 2976
3173 3171 3169 3167 3165 3164 3162 3160 3158 3156 3154 3152 3150 3148 3146 3144 3143 3141 3139 3137 3136 3134 3132 3131 3129 3127 3126 3125 3124 3122 3121 3119 3118 3117 3115 3114 3113 3112 3110 3109 3108 3107 3106 3105 3104 3102 3101 3100 3099 3097 3096 3094 3093 3091 3089 3086 3084 3081 3079 3076 3073 3070 3067 3064 3061 3056 3053 3049 3045 3041 3037 3034 3030 3027 3023 3019 3015 3011 3007 3003 2999 2995 2990 2986 2981 2977 2973
3173 3171 3169 3168 3166 3164 3162 3160 3158 3156 3155 3153 3151 3149 3147 3145 3143 3141 3140 3138 3136 3135 3133 3131 3129 3128 3127 3125 3124 3122 3121 3120 3118 3117 3116 3115 3114 3112 3111 3110 3109 3107 3106 3105 3104 3103 3101 3100 3098 3097 3096 3094 3092 3090 3087 3085 3083 3080 3077 3074 3071 3068 3065 3062 3058 3054 3050 3046 3042 3038 3035 3031 3027 3024 3021 3017 3013 3009 3005 3001 2996 2992 2987 2983 2978 2974 2970
3173 3171 3170 3168 3166 3164 3163 3161 3159 3157 3155 3153 3152 3150 3147 3145 3144 3142 3140 3138 3137 3135 3134 3132 3130 3128 3127 3125 3124 3122 3121 3120 3118 3117 3116 3115 3114 3113 3111 3110 3109 3108 3107 3106 3104 3103 3101 3100 3098 3097 3095 3093 3091 3089 3086 3084 3081 3078 3075 3072 3068 3065 3062 3058 3055 3051 3047 3043 3039 3035 3032 3029 3026 3022 3019 3015 3011 3007 3002 2998 2993 2988 2984 2980 2975 2971 2966
3174 3172 3170 3168 3166 3165 3163 3161 3159 3158 3156 3154 3152 3150 3148 3146 3145 3143 3141 3139 3138 3136 3134 3132 3130 3128 3127 3125 3124 3123 3121 3120 3119 3118 3116 3115 3114 3113 3112 3110 3109 3108 3107 3106 3104 3103 3101 3099 3098 3096 3094 3092 3090 3088 3085 3082 3079 3076 3073 3069 3066 3063 3059 3055 3052 3048 3044 3040 3036 3033 3030 3026 3023 3019 3016 3012 3008 3003 2999 2994 2989 2984 2980 2976 2971 2967 2963
3174 3172 3170 3168 3167 3165 3163 3162 3160 3158 3156 3154 3152 3150 3149 3147 3145 3143 3142 3141 3139 3136 3134 3132 3130 3128 3127 3125 3124 3123 3121 3120 3119 3118 3117 3115 3114 3113 3112 3110 3109 3108 3107 3105 3104 3102 3101 3099 3097 3095 3093 3091 3089 3086 3083 3080 3077 3074 3070 3067 3064 3060 3056 3053 3049 3045 3042 3038 3035 3031 3027 3024 3020 3016 3013 3009 3005 3000 2996 2991 2986 2981 2976 2972 2968 2964 2960
3174 3172 3170 3169 3167 3165 3164 3162 3160 3158 3156 3154 3153 3151 3149 3147 3146 3144 3143 3140 3138 3136 3134 3132 3130 3128 3127 3125 3124 3123 3121 3120 3119 3118 3117 3115 3114 3113 3111 3110 3109 3107 3106 3104 3103 3102 3100 3098 3096 3094 3092 3090 3087 3084 3081 3078 3075 3072 3068 3065 3061 3058 3054 3050 3047 3043 3039 3036 3032 3028 3024 3021 3017 3014 3010 3006 3002 2997 2993 2988 2983 2979 2974 2970 2966 2962 2957
3174 3172 3170 3169 3167 3166 3164 3162 3160 3158 3157 3155 3153 3151 3149 3147 3146 3144 3142 3139 3137 3136 3134 3132 3130 3129 3127 3126 3124 3123 3121 3120 3119 3118 3116 3115 3114 3112 3111 3110 3108 3107 3105 3104 3102 3101 3099 3097 3095 3093 3091 3088 3085 3082 3079 3076 3073 3069 3066 3062 3059 3055 3052 3048 3045 3040 3036 3033 3029 3025 3021 3017 3014 3010 3007 3003 2999 2995 2990 2986 2981 2976 2972 2968 2963 2959 2955
3174 3172 3171 3169 3167 3166 3164 3162 3161 3159 3157 3155 3153 3151 3150 3148 3145 3143 3141 3139 3137 3135 3133 3132 3130 3129 3127 3126 3124 3123 3121 3120 3119 3118 3116 3115 3114 3112 3111 3109 3108 3106 3105 3103 3102 3100 3098 3096 3094 3091 3089 3086 3084 3080 3077 3074 3071 3067 3064 3060 3057 3053 3050 3046 3042 3038 3034 3030 3026 3022 3018 3014 3010 3007 3004 3000 2996 2992 2988 2983 2979 2974 2969 2965 2960 2956 2952
3174 3172 3171 3169 3167 3166 3164 3162 3161 3159 3157 3155 3153 3151 3149 3147 3145 3143 3141 3139 3137 3136 3134 3132 3130 3129 3127 3126 3124 3123 3121 3120 3119 3117 3116 3115 3113 3112 3110 3109 3107 3106 3104 3102 3101 3099 3097 3095 3093 3090 3088 3085 3082 3079 3075 3072 3069 3065 3062 3058 3054 3051 3047 3043 3040 3036 3032 3028 3024 3020 3015 3011 3007 3004 3001 2997 2993 2988 2984 2980 2976 2971 2967 2962 2958 2954 2950
3174 3172 3171 3169 3167 3166 3164 3162 3160 3158 3156 3155 3153 3150 3148 3146 3145 3143 3141 3139 3138 3136 3134 3133 3131 3129 3127 3125 3124 3122 3121 3119 3118 3117 3116 3114 3113 3111 3110 3108 3107 3105 3104 3102 3100 3098 3096 3094 3091 3089 3086 3083 3080 3077 3073 3070 3066 3063 3059 3056 3052 3049 3045 3041 3037 3033 3029 3025 3021 3017 3013 3009 3005 3001 2998 2994 2990 2986 2981 2977 2973 2969 2964 2960 2955 2951 2947
3174 3172 3171 3169 3167 3166 3164 3162 3160 3158 3156 3154 3152 3150 3149 3147 3145 3143 3142 3140 3139 3137 3135 3133 3131 3129 3127 3125 3123 3122 3120 3119 3117 3116 3115 3113 3112 3111 3109 3108 3106 3105 3103 3101 3099 3097 3095 3092 3090 3087 3085 3081 3078 3075 3072 3068 3065 3061 3058 3054 3050 3047 3043 3039 3035 3031 3027 3023 3019 3015 3011 3006 3002 2998 2995 2991 2987 2983 2979 2974 2970 2966 2962 2957 2953 2949 2944
3174 3172 3170 3169 3167 3165 3163 3161 3160 3158 3156 3154 3152 3150 3149 3147 3146 3144 3142 3141 3139 3137 3135 3133 3131 3129 3126 3125 3123 3121 3120 3118 3117 3115 3114 3113 3111 3110 3109 3107 3106 3104 3102 3100 3098 3096 3094 3091 3089 3086 3083 3080 3076 3073 3070 3066 3063 3059 3056 3052 3048 3044 3041 3037 3033 3029 3025 3021 3016 3012 3008 3004 3000 2996 2992 2988 2984 2981 2976 2972 2968 2964 2959 2955 2951 2946 2941
3174 3172 3170 3169 3167 3164 3163 3161 3159 3157 3156 3154 3152 3150 3149 3147 3145 3144 3142 3141 3139 3137 3134 3132 3130 3128 3126 3124 3122 3120 3119 3117 3116 3115 3113 3112 3111 3109 3108 3106 3104 3103 3101 3099 3097 3094 3092 3090 3087 3084 3081 3078 3075 3071 3068 3065 3061 3057 3054 3050 3046 3042 3038 3035 3031 3026 3022 3018 3014 3010 3006 3002 2998 2994 2990 2986 2982 2978 2974 2970 2966 2961 2957 2953 2949 2944 2939
3174 3172 3170 3168 3166 3164 3162 3161 3159 3158 3156 3154 3153 3151 3149 3147 3145 3144 3142 3140 3138 3136 3133 3131 3129 3127 3125 3123 3121 3120 3118 3117 3115 3114 3113 3111 3109 3108 3106 3105 3103 3101 3099 3097 3095 3093 3090 3088 3085 3082 3079 3076 3073 3069 3066 3063 3059 3056 3052 3048 3044 3040 3036 3033 3029 3024 3020 3016 3012 3008 3004 3000 2996 2992 2988 2984 2980 2976 2972 2967 2963 2959 2955 2950 2946 2942 2937
3173 3171 3170 3168 3166 3164 3162 3161 3160 3158 3156 3154 3152 3150 3148 3147 3145 3143 3141 3139 3137 3135 3133 3130 3128 3126 3124 3122 3120 3118 3117 3116 3114 3113 3111 3110 3108 3106 3105 3103 3101 3100 3098 3095 3093 3091 3088 3086 3083 3080 3077 3074 3071 3068 3064 3061 3057 3054 3050 3046 3042 3039 3035 3030 3026 3022 3018 3014 3010 3006 3002 2998 2994 2990 2986 2982 2978 2974 2970 2966 2961 2957 2953 2949 2944 2940 2935
3173 3171 3169 3168 3166 3164 3163 3161 3159 3158 3156 3154 3152 3150 3148 3146 3144 3142 3140 3138 3136 3134 3132 3129 3127 3125 3123 3121 3119 3117 3116 3114 3113 3111 3110 3108 3107 3105 3103 3102 3100 3098 3096 3094 3091 3089 3086 3084 3081 3078 3075 3072 3069 3066 3062 3059 3055 3052 3048 3044 3040 3036 3032 3028 3024 3020 3016 3012 3008 3004 3000 2996 2992 2988 2985 2980 2976 2972 2968 2964 2960 2956 2952 2947 2942 2938 2934
3172 3171 3169 3167 3166 3164 3162 3160 3159 3157 3155 3153 3151 3149 3147 3145 3143 3141 3139 3137 3135 3133 3130 3128 3126 3124 3122 3120 3118 3116 3114 3113 3111 3110 3108 3107 3105 3104 3102 3100 3098 3096 3094 3092 3089 3086 3084 3081 3079 3076 3073 3070 3067 3064 3060 3057 3053 3050 3046 3042 3038 3034 3030 3026 3022 3018 3014 3010 3006 3002 2998 2994 2990 2986 2983 2979 2974 2970 2966 2962 2958 2954 2949 2945 2941 2937 2933
3172 3170 3169 3167 3165 3163 3161 3159 3158 3156 3154 3152 3150 3148 3146 3144 3142 3140 3138 3136 3133 3131 3129 3126 3124 3122 3120 3118 3116 3115 3113 3111 3110 3108 3107 3105 3104 3102 3101 3099 3096 3094 3092 3089 3087 3084 3082 3079 3077 3074 3071 3068 3065 3061 3058 3054 3051 3047 3043 3040 3036 3032 3028 3024 3020 3016 3012 3008 3004 2999 2996 2992 2988 2984 2980 2977 2973 2968 2964 2960 2956 2951 2947 2943 2939 2935 2931
3171 3170 3168 3166 3164 3162 3160 3158 3157 3155 3153 3151 3149 3147 3145 3143 3141 3139 3137 3134 3132 3130 3127 3125 3122 3120 3118 3117 3115 3113 3111 3110 3108 3107 3105 3104 3102 3100 3099 3097 3095 3092 3090 3087 3085 3082 3080 3077 3074 3072 3069 3066 3062 3059 3055 3052 3048 3045 3041 3037 3033 3030 3026 3022 3017 3013 3009 3005 3001 2997 2993 2989 2985 2982 2978 2974 2971 2967 2962 2957 2953 2950 2946 2942 2938 2934 2929
3170 3169 3167 3165 3163 3161 3159 3157 3155 3153 3152 3150 3148 3146 3144 3141 3139 3137 3135 3133 3131 3128 3126 3123 3121 3119 3117 3115 3113 3111 3110 3108 3106 3105 3104 3102 3100 3099 3097 3095 3093 3090 3088 3085 3082 3080 3077 3075 3072 3069 3066 3063 3060 3056 3053 3050 3046 3042 3038 3035 3031 3027 3023 3019 3015 3011 3007 3003 2999 2995 2991 2987 2983 2979 2976 2972 2968 2964 2960 2956 2952 2949 2945 2941 2937 2932 2927